Simultaneous Nadir Overpasses (SNOs) Predictions

Prediction of SNOs between AQUA and NPP Satellite Orbit:

Table of predicted SNOs for the next 14.0 days since TLE Epoch: 12/25/2021
Index Date (AQUA) Time (AQUA) Lat,Lon (AQUA) SZA (AQUA ) Date (NPP) Time (NPP) Lat,Lon (NPP) SZA (NPP ) Distance(km) Time Diff (sec)
1 12/26/2021 21:49:18 -76.28, -87.19 60.37 12/26/2021 21:48:40 -76.29, -87.09 60.36 2.71 38
2 12/26/2021 22:38:29 76.97, 82.84 118.86 12/26/2021 22:39:09 76.96, 82.79 118.84 1.30 40
3 12/29/2021 14:05:43 -76.54, 29.56 60.73 12/29/2021 14:05:26 -76.55, 29.64 60.73 2.09 17
4 12/29/2021 14:54:55 77.17,-160.51 118.56 12/29/2021 14:55:56 77.17,-160.58 118.53 1.68 61
5 01/01/2022 05:33:06 75.53, -25.35 120.27 01/01/2022 05:31:54 75.53, -25.37 120.34 0.61 72
6 01/01/2022 06:22:14 -76.50, 145.29 60.80 01/01/2022 06:22:19 -76.49, 145.20 60.78 2.64 5
7 01/03/2022 21:49:23 76.10, 92.25 119.47 01/03/2022 21:48:32 76.11, 92.32 119.50 1.99 51
8 01/03/2022 22:38:33 -76.95, -97.21 61.49 01/03/2022 22:38:59 -76.96, -97.20 61.52 0.32 26
9 01/06/2022 14:05:47 76.36,-151.04 118.96 01/06/2022 14:05:18 76.36,-151.02 118.98 0.54 29



Historial Predications of SNOs between AQUA and NPP
